QPF
0.02 0.02 0.01 0.00 0.00 0.00 0.00 0.00 0.00 0.01 0.01 0.00 0.00 0.00 0.00 0.00 0.00 0.00 0.00 0.00 0.01 0.02 0.02 0.02 0.02 0.02 0.02 0.02 0.01 0.01 0.02 0.04 0.04 0.03 0.02 0.02 0.02 0.02 0.02 0.03 0.05 0.05 0.06
0.02 0.03 0.02 0.01 0.01 0.01 0.01 0.01 0.01 0.01 0.01 0.00 0.00 0.00 0.00 0.00 0.00 0.00 0.00 0.00 0.00 0.01 0.01 0.01 0.02 0.02 0.02 0.02 0.02 0.02 0.03 0.03 0.04 0.04 0.04 0.04 0.04 0.04 0.03 0.04 0.04 0.05 0.06
0.01 0.03 0.04 0.03 0.02 0.01 0.01 0.01 0.01 0.01 0.01 0.01 0.00 0.00 0.00 0.00 0.00 0.00 0.00 0.00 0.00 0.00 0.00 0.01 0.01 0.02 0.03 0.03 0.04 0.05 0.05 0.05 0.05 0.04 0.05 0.05 0.07 0.06 0.05 0.06 0.06 0.05 0.05
0.02 0.02 0.04 0.06 0.05 0.03 0.02 0.01 0.01 0.01 0.01 0.01 0.01 0.00 0.00 0.00 0.00 0.00 0.00 0.00 0.00 0.00 0.00 0.00 0.01 0.01 0.02 0.02 0.03 0.03 0.04 0.06 0.07 0.07 0.06 0.06 0.09 0.08 0.07 0.08 0.07 0.05 0.04
0.01 0.01 0.02 0.04 0.06 0.06 0.03 0.02 0.01 0.01 0.00 0.00 0.00 0.00 0.00 0.00 0.00 0.00 0.00 0.00 0.00 0.00 0.00 0.00 0.01 0.01 0.01 0.02 0.03 0.03 0.03 0.05 0.07 0.07 0.06 0.07 0.09 0.09 0.08 0.07 0.07 0.06 0.05
0.01 0.01 0.01 0.02 0.04 0.06 0.07 0.04 0.02 0.01 0.01 0.00 0.00 0.00 0.00 0.00 0.00 0.00 0.00 0.00 0.00 0.00 0.00 0.00 0.00 0.00 0.01 0.01 0.02 0.03 0.04 0.04 0.04 0.05 0.05 0.05 0.06 0.05 0.06 0.07 0.06 0.05 0.05
0.01 0.01 0.01 0.02 0.02 0.04 0.07 0.07 0.04 0.02 0.01 0.01 0.01 0.01 0.01 0.00 0.00 0.00 0.00 0.00 0.00 0.01 0.01 0.01 0.01 0.00 0.01 0.01 0.01 0.02 0.02 0.03 0.04 0.04 0.04 0.04 0.04 0.04 0.04 0.03 0.04 0.04 0.04
0.02 0.01 0.01 0.01 0.02 0.03 0.04 0.06 0.07 0.05 0.03 0.01 0.01 0.01 0.01 0.01 0.00 0.00 0.01 0.01 0.00 0.00 0.01 0.01 0.01 0.01 0.01 0.01 0.01 0.01 0.02 0.03 0.04 0.04 0.04 0.04 0.04 0.03 0.02 0.02 0.03 0.04 0.05
0.02 0.02 0.01 0.01 0.01 0.02 0.03 0.04 0.06 0.07 0.05 0.03 0.01 0.01 0.00 0.00 0.00 0.00 0.01 0.01 0.01 0.01 0.01 0.01 0.01 0.01 0.01 0.02 0.02 0.02 0.02 0.03 0.05 0.06 0.05 0.04 0.04 0.03 0.02 0.02 0.03 0.03 0.04
0.01 0.01 0.02 0.02 0.01 0.02 0.03 0.04 0.05 0.07 0.08 0.05 0.03 0.01 0.01 0.00 0.00 0.00 0.00 0.00 0.00 0.01 0.01 0.01 0.02 0.02 0.02 0.03 0.03 0.02 0.02 0.02 0.04 0.05 0.05 0.05 0.04 0.04 0.03 0.03 0.04 0.05 0.04
0.01 0.01 0.01 0.02 0.02 0.02 0.02 0.04 0.05 0.05 0.07 0.08 0.05 0.03 0.01 0.01 0.01 0.00 0.00 0.01 0.00 0.00 0.00 0.00 0.01 0.02 0.02 0.03 0.03 0.03 0.03 0.03 0.03 0.04 0.04 0.04 0.04 0.04 0.04 0.04 0.03 0.05 0.06
0.02 0.02 0.02 0.02 0.03 0.03 0.03 0.03 0.04 0.04 0.05 0.06 0.07 0.05 0.03 0.02 0.02 0.02 0.01 0.01 0.01 0.01 0.01 0.01 0.01 0.01 0.01 0.02 0.02 0.02 0.02 0.02 0.02 0.03 0.03 0.03 0.03 0.04 0.04 0.04 0.04 0.04 0.05
0.04 0.04 0.03 0.03 0.03 0.03 0.02 0.02 0.02 0.03 0.03 0.05 0.05 0.05 0.04 0.04 0.03 0.03 0.02 0.01 0.01 0.01 0.01 0.01 0.01 0.01 0.01 0.01 0.01 0.01 0.01 0.01 0.01 0.01 0.02 0.03 0.04 0.04 0.04 0.04 0.04 0.03 0.03
0.03 0.03 0.03 0.03 0.02 0.02 0.01 0.01 0.01 0.01 0.02 0.03 0.05 0.04 0.04 0.03 0.04 0.03 0.02 0.02 0.01 0.01 0.01 0.01 0.00 0.00 0.00 0.01 0.01 0.01 0.01 0.01 0.01 0.01 0.01 0.02 0.02 0.03 0.03 0.03 0.03 0.03 0.03
0.02 0.02 0.02 0.02 0.02 0.01 0.01 0.00 0.00 0.01 0.01 0.02 0.03 0.04 0.04 0.03 0.02 0.02 0.02 0.02 0.01 0.01 0.01 0.01 0.01 0.01 0.01 0.01 0.01 0.01 0.00 0.00 0.01 0.01 0.01 0.01 0.01 0.02 0.02 0.03 0.03 0.03 0.04
0.01 0.01 0.01 0.01 0.01 0.01 0.01 0.01 0.00 0.00 0.00 0.01 0.02 0.02 0.03 0.03 0.03 0.02 0.01 0.01 0.02 0.02 0.02 0.02 0.01 0.01 0.01 0.01 0.01 0.01 0.01 0.00 0.00 0.01 0.01 0.01 0.01 0.01 0.01 0.02 0.02 0.03 0.04
0.01 0.01 0.00 0.00 0.00 0.01 0.01 0.01 0.01 0.00 0.01 0.01 0.01 0.01 0.01 0.02 0.02 0.03 0.02 0.01 0.01 0.02 0.02 0.02 0.01 0.01 0.01 0.01 0.01 0.01 0.01 0.00 0.00 0.00 0.00 0.01 0.01 0.01 0.01 0.01 0.01 0.02 0.03
0.01 0.00 0.00 0.00 0.00 0.00 0.00 0.01 0.01 0.01 0.01 0.01 0.01 0.01 0.01 0.01 0.01 0.02 0.02 0.02 0.02 0.02 0.01 0.01 0.02 0.01 0.01 0.01 0.01 0.01 0.01 0.01 0.01 0.01 0.01 0.01 0.01 0.01 0.01 0.01 0.01 0.02 0.02
0.00 0.00 0.00 0.00 0.00 0.00 0.00 0.00 0.00 0.01 0.01 0.01 0.01 0.01 0.01 0.01 0.01 0.02 0.02 0.03 0.03 0.02 0.02 0.02 0.02 0.02 0.02 0.01 0.01 0.01 0.01 0.01 0.01 0.01 0.01 0.01 0.01 0.01 0.01 0.01 0.02 0.02 0.02
0.00 0.00 0.00 0.00 0.00 0.00 0.00 0.00 0.00 0.01 0.01 0.01 0.01 0.01 0.01 0.01 0.01 0.02 0.02 0.02 0.03 0.04 0.05 0.04 0.03 0.03 0.02 0.01 0.01 0.01 0.00 0.00 0.00 0.01 0.01 0.01 0.01 0.01 0.01 0.02 0.02 0.02 0.02
0.01 0.00 0.00 0.00 0.00 0.00 0.01 0.01 0.01 0.01 0.01 0.01 0.01 0.01 0.01 0.01 0.01 0.01 0.02 0.02 0.03 0.03 0.04 0.04 0.03 0.03 0.02 0.02 0.01 0.01 0.01 0.01 0.01 0.01 0.01 0.01 0.01 0.01 0.02 0.02 0.02 0.02 0.02
0.01 0.01 0.01 0.00 0.00 0.01 0.01 0.01 0.01 0.01 0.01 0.01 0.01 0.01 0.01 0.01 0.01 0.01 0.01 0.02 0.02 0.03 0.04 0.05 0.05 0.05 0.05 0.04 0.03 0.02 0.02 0.02 0.01 0.01 0.01 0.02 0.02 0.02 0.02 0.03 0.03 0.03 0.03
0.02 0.01 0.01 0.01 0.01 0.01 0.01 0.01 0.01 0.01 0.01 0.01 0.01 0.01 0.01 0.01 0.01 0.02 0.02 0.02 0.02 0.03 0.04 0.04 0.04 0.05 0.05 0.04 0.04 0.04 0.03 0.03 0.02 0.02 0.02 0.02 0.02 0.03 0.04 0.04 0.04 0.04 0.04
0.01 0.01 0.02 0.02 0.01 0.01 0.01 0.01 0.01 0.01 0.01 0.01 0.01 0.01 0.01 0.01 0.02 0.02 0.02 0.02 0.02 0.03 0.04 0.03 0.02 0.02 0.02 0.02 0.02 0.03 0.03 0.04 0.04 0.03 0.03 0.03 0.03 0.04 0.05 0.05 0.05 0.05 0.05
0.01 0.01 0.02 0.02 0.02 0.02 0.01 0.01 0.02 0.02 0.02 0.02 0.02 0.02 0.02 0.02 0.02 0.02 0.02 0.02 0.02 0.03 0.03 0.03 0.02 0.02 0.01 0.01 0.01 0.01 0.01 0.01 0.02 0.03 0.03 0.03 0.04 0.04 0.05 0.05 0.05 0.05 0.05
0.01 0.01 0.01 0.02 0.02 0.02 0.02 0.02 0.02 0.02 0.02 0.03 0.03 0.02 0.02 0.03 0.03 0.04 0.03 0.03 0.02 0.02 0.02 0.02 0.01 0.01 0.01 0.01 0.01 0.01 0.01 0.01 0.01 0.01 0.02 0.02 0.02 0.03 0.04 0.04 0.04 0.05 0.05
MSLP
1011.49 1012.04 1012.65 1013.29 1013.92 1014.53 1015.11 1015.66 1016.19 1016.71 1017.22 1017.71 1018.18 1018.61 1018.98 1019.26 1019.45 1019.56 1019.59 1019.56 1019.51 1019.47 1019.45 1019.49 1019.56 1019.66 1019.77 1019.85 1019.88 1019.85 1019.73 1019.54 1019.28 1018.97 1018.63 1018.28 1017.93 1017.58 1017.24 1016.91 1016.57 1016.22 1015.87
1011.51 1012.07 1012.67 1013.29 1013.91 1014.52 1015.10 1015.66 1016.21 1016.75 1017.28 1017.80 1018.29 1018.73 1019.11 1019.39 1019.57 1019.65 1019.64 1019.56 1019.45 1019.34 1019.25 1019.20 1019.20 1019.24 1019.31 1019.38 1019.42 1019.42 1019.36 1019.24 1019.06 1018.82 1018.54 1018.22 1017.88 1017.53 1017.16 1016.78 1016.39 1015.99 1015.60
1011.73 1012.31 1012.91 1013.52 1014.12 1014.70 1015.27 1015.81 1016.35 1016.89 1017.43 1017.96 1018.45 1018.90 1019.28 1019.56 1019.73 1019.80 1019.77 1019.66 1019.51 1019.35 1019.19 1019.08 1019.01 1018.99 1019.01 1019.05 1019.09 1019.10 1019.08 1019.01 1018.88 1018.69 1018.45 1018.16 1017.83 1017.47 1017.07 1016.66 1016.23 1015.79 1015.36
1012.05 1012.67 1013.29 1013.89 1014.46 1015.01 1015.54 1016.06 1016.57 1017.09 1017.61 1018.13 1018.62 1019.07 1019.44 1019.72 1019.90 1019.97 1019.94 1019.82 1019.65 1019.46 1019.27 1019.11 1018.98 1018.91 1018.88 1018.87 1018.89 1018.89 1018.87 1018.81 1018.71 1018.54 1018.32 1018.05 1017.72 1017.34 1016.93 1016.49 1016.03 1015.57 1015.11
1012.38 1013.04 1013.68 1014.27 1014.83 1015.35 1015.85 1016.33 1016.81 1017.30 1017.80 1018.29 1018.77 1019.20 1019.57 1019.85 1020.04 1020.12 1020.10 1019.99 1019.82 1019.62 1019.41 1019.22 1019.05 1018.93 1018.84 1018.79 1018.76 1018.73 1018.68 1018.60 1018.49 1018.32 1018.09 1017.81 1017.47 1017.09 1016.66 1016.21 1015.74 1015.27 1014.80
1012.62 1013.34 1014.00 1014.60 1015.16 1015.66 1016.13 1016.58 1017.03 1017.49 1017.95 1018.42 1018.87 1019.28 1019.64 1019.92 1020.12 1020.21 1020.20 1020.12 1019.96 1019.77 1019.55 1019.34 1019.14 1018.97 1018.83 1018.72 1018.62 1018.53 1018.43 1018.31 1018.16 1017.96 1017.71 1017.42 1017.07 1016.68 1016.25 1015.80 1015.34 1014.88 1014.42
1012.76 1013.52 1014.21 1014.83 1015.38 1015.88 1016.34 1016.78 1017.21 1017.64 1018.07 1018.51 1018.93 1019.32 1019.66 1019.94 1020.12 1020.23 1020.24 1020.17 1020.03 1019.85 1019.63 1019.40 1019.18 1018.96 1018.77 1018.59 1018.42 1018.26 1018.09 1017.91 1017.70 1017.46 1017.18 1016.86 1016.50 1016.11 1015.70 1015.27 1014.83 1014.39 1013.96
1012.80 1013.59 1014.31 1014.95 1015.52 1016.03 1016.49 1016.93 1017.35 1017.76 1018.18 1018.59 1018.98 1019.34 1019.66 1019.91 1020.09 1020.18 1020.20 1020.14 1020.02 1019.84 1019.62 1019.38 1019.12 1018.86 1018.61 1018.37 1018.13 1017.89 1017.65 1017.40 1017.13 1016.85 1016.54 1016.20 1015.84 1015.45 1015.06 1014.65 1014.25 1013.85 1013.46
1012.79 1013.60 1014.34 1015.00 1015.59 1016.12 1016.60 1017.05 1017.47 1017.89 1018.29 1018.68 1019.04 1019.37 1019.65 1019.87 1020.03 1020.11 1020.12 1020.06 1019.93 1019.75 1019.53 1019.27 1018.98 1018.69 1018.38 1018.07 1017.77 1017.46 1017.15 1016.85 1016.53 1016.21 1015.88 1015.53 1015.16 1014.79 1014.41 1014.03 1013.66 1013.29 1012.93
1012.79 1013.60 1014.35 1015.03 1015.64 1016.20 1016.71 1017.18 1017.62 1018.03 1018.42 1018.79 1019.12 1019.42 1019.66 1019.85 1019.98 1020.04 1020.03 1019.96 1019.82 1019.63 1019.40 1019.12 1018.81 1018.47 1018.12 1017.77 1017.41 1017.05 1016.70 1016.35 1016.00 1015.65 1015.30 1014.94 1014.58 1014.21 1013.84 1013.46 1013.10 1012.74 1012.39
1012.83 1013.63 1014.38 1015.08 1015.72 1016.30 1016.83 1017.32 1017.78 1018.20 1018.58 1018.93 1019.23 1019.49 1019.70 1019.86 1019.95 1019.99 1019.96 1019.87 1019.72 1019.52 1019.27 1018.97 1018.64 1018.28 1017.90 1017.51 1017.12 1016.73 1016.35 1015.97 1015.60 1015.24 1014.88 1014.51 1014.13 1013.75 1013.36 1012.97 1012.59 1012.21 1011.84
1012.89 1013.69 1014.44 1015.15 1015.81 1016.42 1016.97 1017.49 1017.95 1018.37 1018.75 1019.08 1019.35 1019.58 1019.76 1019.88 1019.95 1019.96 1019.91 1019.81 1019.65 1019.44 1019.18 1018.87 1018.53 1018.16 1017.76 1017.36 1016.95 1016.54 1016.14 1015.76 1015.38 1015.00 1014.62 1014.23 1013.83 1013.41 1012.98 1012.54 1012.10 1011.66 1011.23
1012.96 1013.75 1014.51 1015.23 1015.91 1016.54 1017.11 1017.64 1018.11 1018.52 1018.89 1019.20 1019.45 1019.65 1019.80 1019.90 1019.94 1019.94 1019.88 1019.78 1019.62 1019.41 1019.15 1018.84 1018.50 1018.12 1017.72 1017.31 1016.89 1016.48 1016.07 1015.68 1015.29 1014.89 1014.48 1014.05 1013.60 1013.12 1012.61 1012.09 1011.55 1011.02 1010.51
1012.96 1013.77 1014.54 1015.28 1015.97 1016.62 1017.21 1017.74 1018.21 1018.62 1018.97 1019.26 1019.49 1019.67 1019.80 1019.89 1019.93 1019.92 1019.86 1019.76 1019.61 1019.41 1019.16 1018.86 1018.52 1018.14 1017.74 1017.33 1016.91 1016.49 1016.07 1015.66 1015.24 1014.81 1014.36 1013.87 1013.34 1012.78 1012.17 1011.54 1010.89 1010.25 1009.63
1012.87 1013.70 1014.50 1015.26 1015.97 1016.63 1017.23 1017.77 1018.24 1018.64 1018.97 1019.24 1019.46 1019.63 1019.75 1019.83 1019.87 1019.87 1019.83 1019.74 1019.61 1019.43 1019.19 1018.90 1018.56 1018.19 1017.79 1017.36 1016.93 1016.49 1016.05 1015.60 1015.14 1014.65 1014.13 1013.57 1012.94 1012.27 1011.55 1010.80 1010.03 1009.27 1008.55
1012.65 1013.52 1014.35 1015.14 1015.88 1016.56 1017.17 1017.70 1018.16 1018.55 1018.88 1019.14 1019.34 1019.50 1019.62 1019.71 1019.76 1019.78 1019.77 1019.70 1019.59 1019.42 1019.20 1018.92 1018.58 1018.20 1017.79 1017.34 1016.88 1016.40 1015.91 1015.41 1014.88 1014.32 1013.71 1013.04 1012.32 1011.54 1010.70 1009.84 1008.96 1008.10 1007.28
1012.33 1013.24 1014.10 1014.93 1015.69 1016.39 1017.01 1017.55 1018.01 1018.39 1018.70 1018.95 1019.15 1019.31 1019.44 1019.54 1019.62 1019.66 1019.66 1019.63 1019.54 1019.39 1019.17 1018.89 1018.55 1018.15 1017.71 1017.22 1016.71 1016.17 1015.62 1015.03 1014.42 1013.76 1013.05 1012.28 1011.45 1010.56 1009.62 1008.66 1007.69 1006.75 1005.87
1011.95 1012.89 1013.80 1014.65 1015.44 1016.16 1016.79 1017.33 1017.78 1018.16 1018.47 1018.72 1018.92 1019.09 1019.23 1019.34 1019.44 1019.50 1019.53 1019.52 1019.44 1019.30 1019.09 1018.80 1018.44 1018.01 1017.53 1017.00 1016.42 1015.81 1015.17 1014.49 1013.78 1013.01 1012.20 1011.32 1010.39 1009.40 1008.37 1007.33 1006.30 1005.31 1004.39
1011.56 1012.53 1013.47 1014.35 1015.16 1015.88 1016.52 1017.06 1017.52 1017.90 1018.21 1018.46 1018.66 1018.84 1018.99 1019.13 1019.24 1019.33 1019.38 1019.38 1019.31 1019.18 1018.96 1018.66 1018.27 1017.81 1017.28 1016.68 1016.04 1015.35 1014.61 1013.84 1013.02 1012.15 1011.23 1010.25 1009.22 1008.14 1007.05 1005.94 1004.87 1003.84 1002.90
1011.20 1012.19 1013.14 1014.04 1014.86 1015.59 1016.23 1016.78 1017.24 1017.62 1017.93 1018.19 1018.40 1018.59 1018.76 1018.91 1019.04 1019.14 1019.21 1019.21 1019.15 1019.01 1018.79 1018.47 1018.05 1017.55 1016.97 1016.32 1015.61 1014.84 1014.02 1013.15 1012.23 1011.27 1010.24 1009.17 1008.05 1006.91 1005.74 1004.59 1003.47 1002.41 1001.45
1010.90 1011.89 1012.84 1013.74 1014.56 1015.29 1015.93 1016.48 1016.95 1017.33 1017.65 1017.92 1018.15 1018.35 1018.54 1018.70 1018.85 1018.96 1019.03 1019.04 1018.97 1018.83 1018.59 1018.25 1017.81 1017.28 1016.66 1015.96 1015.19 1014.35 1013.46 1012.51 1011.51 1010.46 1009.35 1008.19 1006.99 1005.77 1004.54 1003.33 1002.17 1001.07 1000.08
1010.63 1011.62 1012.56 1013.44 1014.25 1014.98 1015.62 1016.17 1016.64 1017.03 1017.37 1017.66 1017.90 1018.13 1018.33 1018.50 1018.66 1018.77 1018.84 1018.85 1018.78 1018.62 1018.36 1018.00 1017.55 1016.99 1016.34 1015.61 1014.80 1013.92 1012.97 1011.97 1010.90 1009.77 1008.59 1007.36 1006.09 1004.79 1003.49 1002.21 1000.98 999.82 998.76
1010.37 1011.34 1012.26 1013.12 1013.92 1014.64 1015.28 1015.83 1016.32 1016.73 1017.08 1017.39 1017.66 1017.90 1018.12 1018.31 1018.47 1018.58 1018.65 1018.64 1018.56 1018.38 1018.11 1017.74 1017.26 1016.69 1016.03 1015.28 1014.45 1013.54 1012.57 1011.52 1010.41 1009.23 1007.99 1006.69 1005.35 1003.98 1002.59 1001.23 999.90 998.65 997.50
1010.08 1011.02 1011.92 1012.76 1013.55 1014.26 1014.91 1015.47 1015.97 1016.41 1016.79 1017.13 1017.43 1017.69 1017.93 1018.13 1018.28 1018.40 1018.44 1018.42 1018.32 1018.12 1017.83 1017.44 1016.95 1016.37 1015.70 1014.95 1014.11 1013.20 1012.21 1011.15 1010.02 1008.80 1007.52 1006.17 1004.76 1003.30 1001.83 1000.37 998.93 997.56 996.28
1009.73 1010.65 1011.53 1012.37 1013.14 1013.86 1014.51 1015.10 1015.62 1016.09 1016.51 1016.88 1017.21 1017.50 1017.75 1017.95 1018.11 1018.21 1018.24 1018.19 1018.06 1017.83 1017.52 1017.11 1016.61 1016.02 1015.35 1014.59 1013.76 1012.86 1011.87 1010.81 1009.67 1008.44 1007.13 1005.74 1004.27 1002.75 1001.19 999.62 998.07 996.56 995.14
1009.34 1010.25 1011.12 1011.94 1012.72 1013.44 1014.11 1014.73 1015.28 1015.79 1016.24 1016.65 1017.02 1017.33 1017.60 1017.81 1017.95 1018.03 1018.04 1017.96 1017.79 1017.53 1017.18 1016.75 1016.23 1015.63 1014.95 1014.21 1013.39 1012.49 1011.53 1010.48 1009.34 1008.11 1006.79 1005.38 1003.87 1002.30 1000.67 999.00 997.34 995.71 994.14
Thickness
5684 5682 5680 5679 5678 5676 5675 5674 5672 5670 5668 5666 5664 5661 5659 5656 5654 5652 5649 5648 5646 5644 5643 5641 5639 5638 5636 5635 5633 5630 5628 5625 5622 5625 5629 5630 5631 5631 5632 5632 5632 5631 5630
5679 5677 5675 5674 5672 5670 5669 5668 5667 5665 5663 5661 5659 5656 5654 5651 5649 5646 5644 5642 5640 5638 5636 5635 5633 5632 5630 5628 5626 5625 5622 5621 5619 5618 5620 5622 5623 5624 5625 5625 5625 5625 5624
5673 5671 5668 5667 5665 5662 5662 5661 5660 5659 5657 5655 5653 5650 5648 5645 5642 5640 5638 5636 5634 5633 5631 5628 5627 5625 5623 5621 5620 5618 5617 5617 5615 5614 5614 5615 5616 5617 5617 5617 5618 5618 5618
5666 5663 5661 5659 5658 5656 5655 5654 5653 5652 5650 5648 5646 5644 5642 5639 5636 5634 5632 5630 5628 5626 5625 5623 5621 5619 5616 5615 5614 5612 5611 5610 5609 5608 5607 5607 5608 5609 5608 5607 5608 5609 5609
5659 5656 5654 5653 5651 5649 5648 5646 5646 5644 5643 5641 5639 5638 5636 5633 5630 5627 5625 5623 5621 5619 5618 5616 5615 5613 5612 5609 5608 5605 5604 5602 5602 5600 5599 5599 5599 5599 5598 5599 5599 5600 5601
5652 5650 5648 5646 5643 5642 5640 5638 5637 5637 5635 5634 5632 5631 5628 5626 5623 5621 5618 5616 5614 5612 5610 5609 5608 5606 5604 5603 5601 5600 5598 5596 5594 5593 5592 5591 5592 5592 5592 5592 5591 5590 5590
5645 5642 5640 5638 5635 5633 5633 5630 5628 5628 5627 5625 5624 5623 5621 5618 5616 5614 5612 5609 5607 5605 5603 5601 5600 5599 5596 5595 5593 5593 5591 5590 5589 5587 5586 5586 5585 5586 5585 5585 5584 5583 5583
5637 5634 5631 5629 5627 5625 5624 5622 5621 5620 5618 5617 5616 5615 5613 5611 5609 5607 5604 5602 5600 5598 5596 5594 5591 5589 5588 5587 5586 5584 5583 5582 5582 5582 5581 5581 5581 5581 5580 5579 5578 5578 5579
5628 5626 5623 5621 5619 5617 5615 5614 5613 5611 5610 5608 5608 5606 5604 5602 5601 5598 5595 5592 5590 5589 5588 5586 5583 5581 5580 5579 5577 5575 5574 5575 5575 5575 5575 5575 5575 5575 5574 5572 5571 5569 5569
5618 5617 5615 5613 5611 5609 5608 5606 5605 5603 5601 5601 5600 5598 5596 5593 5592 5590 5587 5584 5581 5579 5578 5577 5575 5573 5572 5570 5568 5566 5565 5566 5567 5567 5567 5567 5567 5567 5567 5565 5563 5561 5561
5611 5609 5607 5605 5603 5601 5600 5598 5596 5594 5593 5592 5591 5590 5588 5586 5583 5581 5578 5575 5572 5570 5569 5567 5566 5565 5564 5563 5561 5559 5558 5559 5559 5559 5559 5559 5559 5559 5559 5558 5557 5555 5554
5604 5601 5599 5598 5596 5594 5591 5589 5587 5585 5583 5582 5581 5579 5578 5577 5574 5571 5568 5566 5564 5561 5560 5559 5558 5557 5556 5555 5554 5553 5552 5551 5550 5549 5549 5549 5549 5549 5549 5550 5550 5549 5549
5596 5593 5592 5590 5588 5586 5583 5581 5578 5576 5574 5573 5571 5569 5567 5566 5564 5562 5559 5557 5555 5552 5551 5550 5549 5548 5547 5546 5545 5544 5543 5541 5540 5540 5540 5540 5540 5540 5541 5541 5541 5542 5542
5588 5586 5584 5582 5580 5577 5575 5573 5570 5567 5565 5564 5561 5559 5558 5556 5553 5551 5548 5546 5545 5543 5541 5541 5540 5539 5538 5537 5536 5534 5533 5532 5531 5530 5530 5531 5531 5531 5531 5531 5531 5532 5531
5580 5579 5577 5574 5572 5569 5566 5564 5562 5560 5559 5556 5553 5551 5549 5546 5545 5543 5540 5538 5536 5534 5533 5531 5530 5529 5528 5527 5526 5525 5524 5523 5522 5521 5521 5521 5521 5522 5521 5521 5521 5522 5521
5573 5571 5568 5566 5564 5561 5559 5556 5555 5554 5552 5550 5547 5544 5542 5540 5538 5535 5533 5530 5529 5527 5524 5522 5521 5520 5519 5518 5517 5516 5515 5513 5513 5512 5511 5511 5511 5511 5511 5511 5511 5511 5511
5566 5564 5561 5559 5557 5555 5552 5549 5547 5545 5544 5542 5540 5537 5535 5533 5530 5527 5525 5523 5520 5518 5514 5513 5512 5511 5510 5508 5507 5506 5505 5504 5504 5503 5502 5502 5502 5502 5501 5501 5501 5501 5501
5560 5558 5555 5552 5550 5548 5546 5544 5541 5539 5536 5534 5533 5530 5528 5525 5523 5520 5518 5514 5511 5509 5506 5505 5503 5502 5500 5499 5498 5497 5496 5495 5495 5494 5494 5493 5493 5492 5492 5492 5491 5491 5490
5553 5550 5547 5545 5543 5541 5539 5537 5535 5533 5530 5528 5525 5523 5521 5518 5515 5512 5509 5505 5503 5501 5498 5496 5494 5492 5490 5489 5488 5487 5487 5486 5486 5485 5485 5485 5484 5483 5483 5483 5482 5482 5481
5545 5543 5540 5537 5535 5533 5531 5529 5527 5526 5523 5521 5518 5515 5512 5509 5506 5503 5499 5497 5495 5493 5490 5488 5485 5483 5481 5480 5478 5478 5477 5478 5477 5477 5476 5476 5476 5475 5475 5475 5474 5474 5473
5538 5535 5532 5529 5526 5524 5523 5521 5519 5517 5515 5513 5510 5508 5505 5502 5499 5496 5493 5490 5487 5485 5482 5479 5477 5475 5473 5471 5470 5470 5469 5469 5469 5468 5468 5467 5466 5466 5467 5467 5466 5465 5465
5530 5527 5524 5521 5519 5516 5514 5513 5511 5508 5506 5504 5502 5500 5497 5494 5491 5488 5485 5483 5480 5477 5474 5471 5470 5468 5466 5464 5463 5462 5462 5461 5460 5460 5459 5459 5458 5458 5458 5459 5458 5457 5457
5521 5519 5516 5513 5511 5509 5506 5504 5502 5499 5497 5496 5494 5491 5488 5485 5482 5480 5478 5475 5472 5469 5466 5464 5462 5460 5459 5457 5456 5455 5454 5454 5453 5452 5451 5451 5451 5450 5450 5450 5450 5449 5449
5513 5510 5507 5505 5502 5499 5497 5495 5493 5492 5490 5488 5485 5482 5479 5476 5474 5472 5469 5467 5464 5462 5459 5456 5454 5453 5451 5450 5449 5448 5447 5446 5446 5445 5445 5444 5443 5443 5442 5442 5441 5441 5440
5505 5502 5499 5496 5493 5491 5489 5487 5484 5483 5481 5478 5476 5473 5470 5468 5466 5463 5461 5458 5455 5453 5451 5448 5446 5444 5443 5443 5442 5441 5440 5439 5439 5438 5437 5436 5436 5435 5434 5433 5433 5432 5431
5496 5493 5490 5487 5485 5482 5480 5478 5476 5474 5471 5469 5467 5464 5462 5459 5457 5455 5452 5450 5448 5445 5443 5440 5438 5437 5436 5435 5434 5434 5433 5432 5431 5431 5429 5428 5427 5426 5426 5425 5425 5424 5423